Date String (YYYY-MM-DD hh:mm:ss) UTC,Instrument flags,absolute air pressure of the measurement (hPa),sample flow rate (lpm),inlet stack bypass flow (lpm),air temperature of the measurement (°C),ambient temperature measured by the external sensor (°C),aerosol sample conditioner tube jacket temperature (°C),OPC LED temperature (°C),internal box temperature (°C),relative humidity of the measurement (%),span deviation,mass concentration of particles derived from Lorenz-Mie calculation of OPC scattering (μg/m³),mass concentration of particles derived from Lorenz-Mie calculation of OPC scattering (μg/m³),mass concentration of particles derived from Lorenz-Mie calculation of OPC scattering (μg/m³)
DateTimeUTC,F1_M11,P_M11,Q1_M11,Q2_M11,T1_M11,T2_M11,T3_M11,T4_M11,T5_M11,U1_M11,ZSPAN_M11,X0_M11,X2_M11,X1_M11
2023-10-11 10:00:00,SystemResetWarning,0817.3,5.00,000.00,028.6,026.9,000.0,037.3,030.3,12.4,0000.0,0009.53,0004.26,0003.93
2023-10-11 10:01:00,SystemResetWarning,0817.3,4.99,000.00,028.7,027.0,000.0,037.3,030.3,12.4,0000.0,0009.66,0004.25,0003.93
2023-10-11 10:02:00,SystemResetWarning,0817.3,4.99,000.00,028.7,027.1,000.0,037.3,030.3,12.4,0000.0,0009.18,0004.23,0003.91
2023-10-11 10:03:00,SystemResetWarning,0817.3,5.00,000.00,028.7,027.2,000.0,037.3,030.3,12.3,0000.0,0009.13,0004.22,0003.90
2023-10-11 10:04:00,SystemResetWarning,0817.3,5.01,000.00,028.7,027.3,000.0,037.3,030.4,12.3,0000.0,0009.24,0004.24,0003.90
2023-10-11 10:05:00,SystemResetWarning,0817.4,5.00,000.00,028.7,027.3,000.0,037.3,030.4,12.3,0000.0,0009.18,0004.24,0003.88
2023-10-11 10:06:00,SystemResetWarning,0817.3,5.00,000.00,028.8,027.4,000.0,037.3,030.4,12.3,0000.0,0009.17,0004.23,0003.86
2023-10-11 10:07:00,SystemResetWarning,0817.3,5.00,000.00,028.8,027.4,000.0,037.3,030.4,12.3,0000.0,0009.13,0004.20,0003.84
2023-10-11 10:08:00,SystemResetWarning,0817.3,4.99,000.00,028.8,027.5,000.0,037.3,030.5,12.3,0000.0,0009.40,0004.20,0003.82
2023-10-11 10:09:00,SystemResetWarning,0817.3,4.99,000.00,028.8,027.5,000.0,037.3,030.5,12.3,0000.0,0009.49,0004.22,0003.80
2023-10-11 10:10:00,SystemResetWarning,0817.3,5.00,000.00,028.9,027.5,000.0,037.3,030.5,12.3,0000.0,0008.97,0004.23,0003.77
2023-10-11 10:11:00,SystemResetWarning,0817.2,5.00,000.00,028.9,027.5,000.0,037.3,030.5,12.5,0000.0,0008.02,0004.23,0003.75
2023-10-11 10:12:00,SystemResetWarning,0817.2,5.01,000.00,028.9,027.6,000.0,037.3,030.5,12.4,0000.0,0007.83,0004.23,0003.74
2023-10-11 10:13:00,SystemResetWarning,0817.2,5.00,000.00,028.9,027.6,000.0,037.3,030.5,12.4,0000.0,0007.77,0004.21,0003.73
2023-10-11 10:14:00,SystemResetWarning,0817.2,5.00,000.00,028.9,027.6,000.0,037.3,030.6,12.4,0000.0,0007.83,0004.22,0003.72
2023-10-11 10:15:00,SystemResetWarning,0817.2,5.00,000.00,028.9,027.6,000.0,037.3,030.6,12.4,0000.0,0007.75,0004.20,0003.71
2023-10-11 10:16:00,SystemResetWarning,0817.2,5.00,000.00,028.9,027.6,000.0,037.3,030.6,12.4,0000.0,0007.75,0004.19,0003.70
2023-10-11 10:17:00,SystemResetWarning,0817.2,5.00,000.00,029.0,027.6,000.0,037.3,030.6,12.5,0000.0,0007.72,0004.17,0003.70
2023-10-11 10:18:00,SystemResetWarning,0817.2,5.00,000.00,029.0,027.6,000.0,037.4,030.6,12.6,0000.0,0008.05,0004.19,0003.70
2023-10-11 10:19:00,SystemResetWarning,0817.2,4.99,000.00,029.0,027.6,000.0,037.4,030.6,12.6,0000.0,0008.04,0004.17,0003.71
2023-10-11 10:20:00,SystemResetWarning,0817.2,4.99,000.00,029.0,027.6,000.0,037.4,030.6,12.6,0000.0,0008.39,0004.17,0003.71
2023-10-11 10:21:00,SystemResetWarning,0817.2,4.99,000.00,029.0,027.6,000.0,037.4,030.6,12.6,0000.0,0008.47,0004.15,0003.71
2023-10-11 10:22:00,SystemResetWarning,0817.2,5.01,000.00,029.0,027.6,000.0,037.4,030.6,12.8,0000.0,0008.64,0004.14,0003.71
2023-10-11 10:23:00,SystemResetWarning,0817.2,5.00,000.00,029.0,027.6,000.0,037.4,030.6,12.7,0000.0,0008.54,0004.13,0003.71
2023-10-11 10:24:00,SystemResetWarning,0817.2,5.01,000.00,029.0,027.6,000.0,037.4,030.6,12.6,0000.0,0008.63,0004.11,0003.69
2023-10-11 10:25:00,SystemResetWarning,0817.2,5.01,000.00,029.0,027.7,000.0,037.4,030.7,12.6,0000.0,0008.98,0004.11,0003.66
2023-10-11 10:26:00,SystemResetWarning,0817.1,5.00,000.00,029.0,027.7,000.0,037.4,030.7,12.5,0000.0,0009.05,0004.11,0003.66
2023-10-11 10:27:00,SystemResetWarning,0817.1,5.00,000.00,029.1,027.7,000.0,037.4,030.7,12.3,0000.0,0008.96,0004.08,0003.64
2023-10-11 10:28:00,SystemResetWarning,0817.1,5.00,000.00,029.1,027.7,000.0,037.5,030.7,12.3,0000.0,0008.95,0004.07,0003.61
2023-10-11 10:29:00,SystemResetWarning,0817.1,5.00,000.00,029.1,027.7,000.0,037.5,030.7,12.4,0000.0,0008.89,0004.05,0003.59
2023-10-11 10:30:00,SystemResetWarning,0817.1,5.00,000.00,029.1,027.7,000.0,037.5,030.7,12.4,0000.0,0008.32,0004.03,0003.57
2023-10-11 10:31:00,SystemResetWarning,0817.1,5.00,000.00,029.1,027.8,000.0,037.5,030.7,12.4,0000.0,0008.17,0004.03,0003.55
2023-10-11 10:32:00,SystemResetWarning,0817.2,5.00,000.00,029.1,027.8,000.0,037.5,030.8,12.3,0000.0,0007.90,0004.00,0003.54
2023-10-11 10:33:00,SystemResetWarning,0817.2,5.00,000.00,029.1,027.8,000.0,037.5,030.8,12.4,0000.0,0007.57,0003.98,0003.54
2023-10-11 10:34:00,SystemResetWarning,0817.2,5.00,000.00,029.1,027.8,000.0,037.5,030.8,12.4,0000.0,0007.55,0004.00,0003.54
2023-10-11 10:35:00,SystemResetWarning,0817.2,4.99,000.00,029.1,027.8,000.0,037.5,030.8,12.4,0000.0,0007.56,0004.02,0003.55
2023-10-11 10:36:00,SystemResetWarning,0817.2,5.00,000.00,029.2,027.8,000.0,037.5,030.8,12.3,0000.0,0007.45,0004.02,0003.56
2023-10-11 10:37:00,SystemResetWarning,0817.2,5.00,000.00,029.2,027.9,000.0,037.5,030.8,12.3,0000.0,0007.39,0003.98,0003.56
2023-10-11 10:38:00,SystemResetWarning,0817.1,5.00,000.00,029.2,027.9,000.0,037.6,030.8,12.2,0000.0,0007.44,0004.00,0003.57
2023-10-11 10:39:00,SystemResetWarning,0817.1,5.00,000.00,029.2,027.9,000.0,037.6,030.8,12.1,0000.0,0007.75,0004.02,0003.58
2023-10-11 10:40:00,SystemResetWarning,0817.0,5.00,000.00,029.2,027.9,000.0,037.6,030.8,12.1,0000.0,0008.29,0004.02,0003.58
2023-10-11 10:41:00,SystemResetWarning,0816.9,5.00,000.00,029.2,027.9,000.0,037.6,030.9,12.0,0000.0,0008.35,0004.06,0003.60
2023-10-11 10:42:00,SystemResetWarning,0816.9,5.00,000.00,029.2,027.9,000.0,037.6,030.9,11.9,0000.0,0008.22,0004.05,0003.61
2023-10-11 10:43:00,SystemResetWarning,0817.0,5.00,000.00,029.2,027.9,000.0,037.6,030.9,11.9,0000.0,0008.20,0004.03,0003.61
2023-10-11 10:44:00,SystemResetWarning,0817.1,5.00,000.00,029.3,027.9,000.0,037.6,030.9,12.0,0000.0,0008.12,0004.02,0003.61
2023-10-11 10:45:00,SystemResetWarning,0817.1,5.00,000.00,029.3,027.9,000.0,037.6,030.9,12.2,0000.0,0008.16,0004.02,0003.60
2023-10-11 10:46:00,SystemResetWarning,0817.1,5.00,000.00,029.3,027.9,000.0,037.6,030.9,12.1,0000.0,0008.18,0004.01,0003.59
2023-10-11 10:47:00,SystemResetWarning,0817.1,5.01,000.00,029.3,027.9,000.0,037.7,030.9,12.0,0000.0,0007.95,0004.00,0003.57
2023-10-11 10:48:00,SystemResetWarning,0817.1,5.00,000.00,029.3,027.9,000.0,037.7,030.9,12.1,0000.0,0007.80,0004.00,0003.57
2023-10-11 10:49:00,SystemResetWarning,0817.1,5.00,000.00,029.3,027.9,000.0,037.7,030.9,12.2,0000.0,0007.73,0003.98,0003.56
2023-10-11 10:50:00,SystemResetWarning,0817.1,4.99,000.00,029.3,027.9,000.0,037.7,030.9,12.0,0000.0,0007.55,0003.99,0003.55
2023-10-11 10:51:00,SystemResetWarning,0817.1,5.00,000.00,029.3,028.0,000.0,037.7,030.9,12.0,0000.0,0006.84,0003.98,0003.54
2023-10-11 10:52:00,SystemResetWarning,0817.1,4.99,000.00,029.3,028.0,000.0,037.7,031.0,12.1,0000.0,0007.80,0003.95,0003.53
2023-10-11 10:53:00,SystemResetWarning,0817.1,5.00,000.00,029.3,027.0,000.0,037.7,030.9,12.1,0000.0,0008.33,0003.93,0003.51
2023-10-11 10:54:00,SystemResetWarning,0816.9,5.00,000.00,029.2,025.1,000.0,037.6,030.7,12.3,0000.0,0008.45,0003.91,0003.47
2023-10-11 10:55:00,SystemResetWarning,0816.9,5.00,000.00,029.1,024.6,000.0,037.6,030.5,12.4,0000.0,0008.51,0003.90,0003.44
2023-10-11 10:56:00,SystemResetWarning,0816.9,5.01,000.00,029.0,024.8,000.0,037.5,030.3,12.5,0000.0,0008.52,0003.88,0003.41
2023-10-11 10:57:00,SystemResetWarning,0816.9,5.00,000.00,028.9,025.1,000.0,037.5,030.2,12.4,0000.0,0008.68,0003.86,0003.38
2023-10-11 10:58:00,SystemResetWarning,0817.0,5.00,000.00,028.8,025.5,000.0,037.5,030.2,12.4,0000.0,0008.62,0003.85,0003.36
2023-10-11 10:59:00,SystemResetWarning,0817.1,5.00,000.00,028.8,025.9,000.0,037.5,030.3,12.5,0000.0,0009.22,0003.84,0003.33
